This is the latest recevied weather packets stored in our database for station/object KN1OBI-13. If no packets are shown the sender has not sent any weather packets the latest 10 day(s).
| Time | Temp. | Humidity | Pressure | Rain* | Wind** | Luminosity | Snow |
|---|---|---|---|---|---|---|---|
| 1788102391 | 23.89° C | 65% | 999.5 hPa | 0 mm | - | - | - |
| 1788101791 | 23.33° C | 67% | 999.7 hPa | 0 mm | - | - | - |
| 1788101191 | 23.33° C | 67% | 1000 hPa | 0 mm | - | - | - |
| 1788100591 | 23.33° C | 67% | 1000 hPa | 0 mm | - | - | - |
| 1788099991 | 22.78° C | 66% | 999.8 hPa | 0 mm | - | - | - |
| 1788099391 | 22.78° C | 66% | 999.8 hPa | 0 mm | - | - | - |
| 1788098791 | 22.78° C | 67% | 999.8 hPa | 0 mm | - | - | - |
| 1788098191 | 22.78° C | 64% | 1000 hPa | 0 mm | - | - | - |
| 1788097591 | 22.22° C | 66% | 1000.1 hPa | 0 mm | - | - | - |
| 1788096991 | 22.22° C | 67% | 1000.2 hPa | 0 mm | - | - | - |
| 1788096391 | 21.11° C | 71% | 1000.3 hPa | 0 mm | - | - | - |
| 1788095791 | 20.56° C | 72% | 1000.4 hPa | 0 mm | - | - | - |
| 1788095191 | 20° C | 74% | 1000.1 hPa | 0 mm | - | - | - |
| 1788094591 | 19.44° C | 74% | 1000.4 hPa | 0 mm | - | - | - |
| 1788093991 | 18.89° C | 75% | 1000.5 hPa | 0 mm | - | - | - |
| 1788093391 | 18.33° C | 76% | 1000.4 hPa | 0 mm | - | - | - |
| 1788092791 | 17.78° C | 76% | 1000.6 hPa | 0 mm | - | - | - |
| 1788092191 | 17.78° C | 76% | 1000.7 hPa | 0 mm | - | - | - |
| 1788091591 | 17.78° C | 77% | 1000.9 hPa | 0 mm | - | - | - |
| 1788090991 | 17.22° C | 78% | 1000.8 hPa | 0 mm | - | - | - |
| 1788090391 | 16.67° C | 78% | 1001 hPa | 0 mm | - | - | - |
| 1788089791 | 16.11° C | 78% | 1000.6 hPa | 0 mm | - | - | - |
| 1788089191 | 16.11° C | 79% | 1000.8 hPa | 0 mm | - | - | - |
| 1788088603 | 15.56° C | 79% | 1000.6 hPa | 0 mm | - | - | - |
| 1788087991 | 15.56° C | 80% | 1000.7 hPa | 0 mm | - | - | - |
* Rain latest hour (hover to see other rain measurements)
** Current wind speed in m/s (hover to see current wind gust speed)